Time,TemperatureF,DewpointF,PressureIn,WindDirection,WindDirectionDegrees,WindSpeedMPH,WindSpeedGustMPH,Humidity,HourlyPrecipIn,Conditions,Clouds,dailyrainin,SolarRadiationWatts/m^2,SoftwareType,DateUTC
2013-04-21 00:03:00,45.0,31.1,30.18,ESE,110,6.0,10.0,58,0.00,,,0.00,0,Wunderground v.1.15,2013-04-21 05:03:00,
2013-04-21 00:08:00,45.0,31.1,30.18,SE,131,6.0,10.0,58,0.00,,,0.00,0,Wunderground v.1.15,2013-04-21 05:08:00,
2013-04-21 00:14:00,45.0,31.1,30.18,SE,142,6.0,11.0,58,0.00,,,0.00,0,Wunderground v.1.15,2013-04-21 05:14:00,
2013-04-21 00:20:00,45.0,31.5,30.18,ESE,106,8.0,8.0,59,0.00,,,0.00,0,Wunderground v.1.15,2013-04-21 05:20:00,
2013-04-21 00:26:00,45.0,31.5,30.17,SE,126,8.0,12.0,59,0.00,,,0.00,0,Wunderground v.1.15,2013-04-21 05:26:00,
2013-04-21 00:31:00,45.0,31.5,30.17,SE,126,8.0,8.0,59,0.00,,,0.00,0,Wunderground v.1.15,2013-04-21 05:31:00,
2013-04-21 00:36:00,45.0,31.5,30.17,SE,132,7.0,11.0,59,0.00,,,0.00,0,Wunderground v.1.15,2013-04-21 05:36:00,
2013-04-21 00:41:00,45.1,31.6,30.17,SE,130,9.0,11.0,59,0.00,,,0.00,0,Wunderground v.1.15,2013-04-21 05:41:00,
2013-04-21 00:46:00,45.1,31.6,30.17,SE,143,9.0,11.0,59,0.00,,,0.00,0,Wunderground v.1.15,2013-04-21 05:46:00,
2013-04-21 00:51:00,45.1,31.6,30.17,SE,136,7.0,12.0,59,0.00,,,0.00,0,Wunderground v.1.15,2013-04-21 05:51:00,
2013-04-21 00:56:00,45.3,31.8,30.17,SE,142,8.0,13.0,59,0.00,,,0.00,0,Wunderground v.1.15,2013-04-21 05:56:00,
2013-04-21 01:01:00,45.4,31.5,30.17,SSE,158,9.0,10.0,58,0.00,,,0.00,0,Wunderground v.1.15,2013-04-21 06:01:00,
2013-04-21 01:07:00,45.4,31.5,30.17,SE,136,9.0,13.0,58,0.00,,,0.00,0,Wunderground v.1.15,2013-04-21 06:07:00,
2013-04-21 01:12:00,45.5,31.6,30.17,SSE,153,10.0,11.0,58,0.00,,,0.00,0,Wunderground v.1.15,2013-04-21 06:12:00,
2013-04-21 01:17:00,45.5,31.6,30.17,ESE,121,11.0,16.0,58,0.00,,,0.00,0,Wunderground v.1.15,2013-04-21 06:17:00,
2013-04-21 01:22:00,45.4,31.5,30.17,SE,132,10.0,15.0,58,0.00,,,0.00,0,Wunderground v.1.15,2013-04-21 06:22:00,
2013-04-21 01:27:00,45.5,31.6,30.16,ESE,122,11.0,15.0,58,0.00,,,0.00,0,Wunderground v.1.15,2013-04-21 06:27:00,
2013-04-21 01:32:00,45.4,31.5,30.16,SE,134,11.0,13.0,58,0.00,,,0.00,0,Wunderground v.1.15,2013-04-21 06:32:00,
2013-04-21 01:38:00,45.3,31.8,30.16,SE,127,11.0,13.0,59,0.00,,,0.00,0,Wunderground v.1.15,2013-04-21 06:38:00,
2013-04-21 01:44:00,45.2,31.7,30.16,ESE,116,10.0,16.0,59,0.00,,,0.00,0,Wunderground v.1.15,2013-04-21 06:44:00,
2013-04-21 01:49:00,45.1,32.0,30.16,SE,134,10.0,16.0,60,0.00,,,0.00,0,Wunderground v.1.15,2013-04-21 06:49:00,
2013-04-21 01:54:00,45.1,32.0,30.15,SE,145,10.0,14.0,60,0.00,,,0.00,0,Wunderground v.1.15,2013-04-21 06:54:00,
2013-04-21 02:00:00,45.1,32.0,30.15,ESE,115,9.0,9.0,60,0.00,,,0.00,0,Wunderground v.1.15,2013-04-21 07:00:00,
2013-04-21 02:05:00,45.0,31.9,30.15,SE,139,10.0,16.0,60,0.00,,,0.00,0,Wunderground v.1.15,2013-04-21 07:05:00,
2013-04-21 02:10:00,45.0,31.9,30.15,SE,140,10.0,10.0,60,0.00,,,0.00,0,Wunderground v.1.15,2013-04-21 07:10:00,
2013-04-21 02:16:00,45.0,31.9,30.14,SSE,149,10.0,14.0,60,0.00,,,0.00,0,Wunderground v.1.15,2013-04-21 07:16:00,
2013-04-21 02:22:00,45.0,31.9,30.14,SE,128,11.0,12.0,60,0.00,,,0.00,0,Wunderground v.1.15,2013-04-21 07:22:00,
2013-04-21 02:27:00,45.1,32.0,30.15,ESE,113,11.0,17.0,60,0.00,,,0.00,0,Wunderground v.1.15,2013-04-21 07:27:00,
2013-04-21 02:32:00,45.0,31.9,30.15,SE,142,9.0,14.0,60,0.00,,,0.00,0,Wunderground v.1.15,2013-04-21 07:32:00,
2013-04-21 02:37:00,45.0,32.3,30.16,SSE,156,8.0,14.0,61,0.00,,,0.00,0,Wunderground v.1.15,2013-04-21 07:37:00,
2013-04-21 02:43:00,44.9,32.3,30.16,SE,144,7.0,10.0,61,0.00,,,0.00,0,Wunderground v.1.15,2013-04-21 07:43:00,
2013-04-21 02:49:00,44.9,32.3,30.15,ESE,114,8.0,12.0,61,0.00,,,0.00,0,Wunderground v.1.15,2013-04-21 07:49:00,
2013-04-21 02:54:00,45.0,32.3,30.15,SE,133,9.0,9.0,61,0.00,,,0.00,0,Wunderground v.1.15,2013-04-21 07:54:00,
2013-04-21 02:59:00,45.1,32.4,30.15,SSE,153,8.0,9.0,61,0.00,,,0.00,0,Wunderground v.1.15,2013-04-21 07:59:00,
2013-04-21 03:05:00,45.0,32.8,30.16,SE,144,7.0,8.0,62,0.00,,,0.00,0,Wunderground v.1.15,2013-04-21 08:05:00,
2013-04-21 03:10:00,45.1,32.8,30.16,SE,145,6.0,6.0,62,0.00,,,0.00,0,Wunderground v.1.15,2013-04-21 08:10:00,
2013-04-21 03:15:00,45.1,32.8,30.15,SE,138,5.0,8.0,62,0.00,,,0.00,0,Wunderground v.1.15,2013-04-21 08:15:00,
2013-04-21 03:20:00,45.1,32.8,30.15,SE,134,6.0,6.0,62,0.00,,,0.00,0,Wunderground v.1.15,2013-04-21 08:20:00,
2013-04-21 03:25:00,45.2,32.9,30.15,SE,142,7.0,12.0,62,0.00,,,0.00,0,Wunderground v.1.15,2013-04-21 08:25:00,
2013-04-21 03:30:00,45.3,33.0,30.15,SE,140,8.0,11.0,62,0.00,,,0.00,0,Wunderground v.1.15,2013-04-21 08:30:00,
2013-04-21 03:36:00,45.3,33.0,30.14,SE,146,9.0,12.0,62,0.00,,,0.00,0,Wunderground v.1.15,2013-04-21 08:36:00,
2013-04-21 03:42:00,45.2,32.9,30.14,East,95,11.0,14.0,62,0.00,,,0.00,0,Wunderground v.1.15,2013-04-21 08:42:00,
2013-04-21 03:48:00,45.3,33.0,30.14,SE,140,11.0,14.0,62,0.00,,,0.00,0,Wunderground v.1.15,2013-04-21 08:48:00,
2013-04-21 03:54:00,45.3,33.0,30.14,SE,133,10.0,12.0,62,0.00,,,0.00,0,Wunderground v.1.15,2013-04-21 08:54:00,
2013-04-21 04:00:00,45.3,33.0,30.14,SE,146,10.0,10.0,62,0.00,,,0.00,0,Wunderground v.1.15,2013-04-21 09:00:00,
2013-04-21 04:06:00,45.3,33.0,30.14,ESE,115,9.0,11.0,62,0.00,,,0.00,0,Wunderground v.1.15,2013-04-21 09:06:00,
2013-04-21 04:12:00,45.4,33.1,30.13,SSE,155,10.0,12.0,62,0.00,,,0.00,0,Wunderground v.1.15,2013-04-21 09:12:00,
2013-04-21 04:17:00,45.4,33.1,30.13,ESE,123,11.0,17.0,62,0.00,,,0.00,0,Wunderground v.1.15,2013-04-21 09:17:00,
2013-04-21 04:22:00,45.4,33.1,30.13,SE,139,12.0,17.0,62,0.00,,,0.00,0,Wunderground v.1.15,2013-04-21 09:22:00,
2013-04-21 04:27:00,45.4,33.5,30.13,SE,134,11.0,17.0,63,0.00,,,0.00,0,Wunderground v.1.15,2013-04-21 09:27:00,
2013-04-21 04:33:00,45.3,33.4,30.13,SE,144,11.0,14.0,63,0.00,,,0.00,0,Wunderground v.1.15,2013-04-21 09:33:00,
2013-04-21 04:39:00,45.1,33.6,30.13,SSE,155,11.0,14.0,64,0.00,,,0.00,0,Wunderground v.1.15,2013-04-21 09:39:00,
2013-04-21 04:45:00,45.2,33.7,30.13,ESE,110,11.0,14.0,64,0.00,,,0.00,0,Wunderground v.1.15,2013-04-21 09:45:00,
2013-04-21 04:51:00,45.2,33.7,30.13,ESE,115,12.0,15.0,64,0.00,,,0.00,0,Wunderground v.1.15,2013-04-21 09:51:00,
2013-04-21 04:56:00,45.1,33.6,30.13,SE,140,12.0,15.0,64,0.00,,,0.00,0,Wunderground v.1.15,2013-04-21 09:56:00,
2013-04-21 05:01:00,45.1,34.0,30.13,ESE,111,11.0,11.0,65,0.00,,,0.00,0,Wunderground v.1.15,2013-04-21 10:01:00,
2013-04-21 05:06:00,45.0,33.9,30.13,SE,126,11.0,12.0,65,0.00,,,0.00,0,Wunderground v.1.15,2013-04-21 10:06:00,
2013-04-21 05:12:00,45.0,33.9,30.13,ESE,123,11.0,13.0,65,0.00,,,0.00,0,Wunderground v.1.15,2013-04-21 10:12:00,
2013-04-21 05:18:00,45.0,33.9,30.13,SE,133,11.0,14.0,65,0.00,,,0.00,0,Wunderground v.1.15,2013-04-21 10:18:00,
2013-04-21 05:24:00,44.9,33.8,30.13,SSE,148,11.0,15.0,65,0.00,,,0.00,0,Wunderground v.1.15,2013-04-21 10:24:00,
2013-04-21 05:30:00,44.7,34.0,30.13,SSE,166,10.0,21.0,66,0.00,,,0.00,0,Wunderground v.1.15,2013-04-21 10:30:00,
2013-04-21 05:36:00,44.7,34.0,30.13,ESE,119,11.0,21.0,66,0.00,,,0.00,0,Wunderground v.1.15,2013-04-21 10:36:00,
2013-04-21 05:41:00,44.5,34.2,30.13,SSE,147,11.0,15.0,67,0.00,,,0.00,0,Wunderground v.1.15,2013-04-21 10:41:00,
2013-04-21 05:46:00,44.3,34.0,30.13,ESE,123,10.0,15.0,67,0.00,,,0.00,0,Wunderground v.1.15,2013-04-21 10:46:00,
2013-04-21 05:51:00,44.2,34.3,30.13,SE,138,10.0,10.0,68,0.00,,,0.00,0,Wunderground v.1.15,2013-04-21 10:51:00,
2013-04-21 05:56:00,44.1,34.2,30.13,ESE,123,9.0,11.0,68,0.00,,,0.00,0,Wunderground v.1.15,2013-04-21 10:56:00,
2013-04-21 06:02:00,43.9,34.4,30.13,SSE,148,8.0,14.0,69,0.00,,,0.00,0,Wunderground v.1.15,2013-04-21 11:02:00,
2013-04-21 06:07:00,43.7,34.2,30.13,SE,144,8.0,14.0,69,0.00,,,0.00,0,Wunderground v.1.15,2013-04-21 11:07:00,
2013-04-21 06:13:00,43.6,34.1,30.13,SE,132,9.0,14.0,69,0.00,,,0.00,0,Wunderground v.1.15,2013-04-21 11:13:00,
2013-04-21 06:19:00,43.5,34.4,30.13,SE,136,10.0,14.0,70,0.00,,,0.00,0,Wunderground v.1.15,2013-04-21 11:19:00,
2013-04-21 06:25:00,43.3,34.2,30.14,SE,138,9.0,13.0,70,0.00,,,0.00,0,Wunderground v.1.15,2013-04-21 11:25:00,
2013-04-21 06:31:00,43.3,34.5,30.14,SSE,152,8.0,8.0,71,0.00,,,0.00,0,Wunderground v.1.15,2013-04-21 11:31:00,
2013-04-21 06:37:00,43.4,34.6,30.14,South,171,8.0,13.0,71,0.00,,,0.00,0,Wunderground v.1.15,2013-04-21 11:37:00,
2013-04-21 06:42:00,43.6,34.8,30.14,SE,127,9.0,9.0,71,0.00,,,0.00,5,Wunderground v.1.15,2013-04-21 11:42:00,
2013-04-21 06:47:00,43.8,35.0,30.13,SE,138,9.0,14.0,71,0.00,,,0.00,7,Wunderground v.1.15,2013-04-21 11:47:00,
2013-04-21 06:52:00,43.9,35.1,30.14,SE,129,9.0,10.0,71,0.00,,,0.00,9,Wunderground v.1.15,2013-04-21 11:52:00,
2013-04-21 06:57:00,43.9,35.1,30.14,SE,139,8.0,10.0,71,0.00,,,0.00,12,Wunderground v.1.15,2013-04-21 11:57:00,
2013-04-21 07:03:00,44.2,35.4,30.14,SSE,151,9.0,9.0,71,0.00,,,0.00,16,Wunderground v.1.15,2013-04-21 12:03:00,
2013-04-21 07:09:00,44.5,35.3,30.14,SSE,157,10.0,16.0,70,0.00,,,0.00,19,Wunderground v.1.15,2013-04-21 12:09:00,
2013-04-21 07:14:00,44.7,35.5,30.14,SSE,164,10.0,15.0,70,0.00,,,0.00,23,Wunderground v.1.15,2013-04-21 12:14:00,
2013-04-21 07:19:00,44.8,35.6,30.14,SE,145,9.0,15.0,70,0.00,,,0.00,28,Wunderground v.1.15,2013-04-21 12:19:00,
2013-04-21 07:24:00,44.7,35.5,30.14,SE,126,8.0,11.0,70,0.00,,,0.00,33,Wunderground v.1.15,2013-04-21 12:24:00,
2013-04-21 07:30:00,44.8,35.6,30.14,SE,140,9.0,9.0,70,0.00,,,0.00,40,Wunderground v.1.15,2013-04-21 12:30:00,
2013-04-21 07:36:00,44.8,35.6,30.14,SE,140,8.0,13.0,70,0.00,,,0.00,51,Wunderground v.1.15,2013-04-21 12:36:00,
2013-04-21 07:41:00,44.9,35.7,30.14,SE,135,8.0,10.0,70,0.00,,,0.00,62,Wunderground v.1.15,2013-04-21 12:41:00,
2013-04-21 07:47:00,45.1,35.9,30.14,SSE,155,9.0,12.0,70,0.00,,,0.00,72,Wunderground v.1.15,2013-04-21 12:47:00,
2013-04-21 07:53:00,45.5,36.3,30.14,SE,145,9.0,10.0,70,0.00,,,0.00,79,Wunderground v.1.15,2013-04-21 12:53:00,
2013-04-21 07:58:00,45.7,36.5,30.14,SSE,152,10.0,14.0,70,0.00,,,0.00,79,Wunderground v.1.15,2013-04-21 12:58:00,
2013-04-21 08:04:00,46.2,36.6,30.14,SE,141,11.0,11.0,69,0.00,,,0.00,83,Wunderground v.1.15,2013-04-21 13:04:00,
2013-04-21 08:09:00,46.2,37.0,30.14,SSE,157,11.0,11.0,70,0.00,,,0.00,91,Wunderground v.1.15,2013-04-21 13:09:00,
2013-04-21 08:15:00,46.7,37.4,30.14,ESE,118,10.0,11.0,70,0.00,,,0.00,107,Wunderground v.1.15,2013-04-21 13:15:00,
2013-04-21 08:21:00,47.3,37.6,30.14,SSE,157,10.0,11.0,69,0.00,,,0.00,127,Wunderground v.1.15,2013-04-21 13:21:00,
2013-04-21 08:27:00,47.6,37.9,30.14,SSE,155,11.0,18.0,69,0.00,,,0.00,120,Wunderground v.1.15,2013-04-21 13:27:00,
2013-04-21 08:32:00,47.7,38.0,30.15,SSE,151,11.0,12.0,69,0.00,,,0.00,114,Wunderground v.1.15,2013-04-21 13:32:00,
2013-04-21 08:37:00,47.7,38.0,30.15,SSE,148,11.0,15.0,69,0.00,,,0.00,118,Wunderground v.1.15,2013-04-21 13:37:00,
2013-04-21 08:43:00,47.9,38.2,30.15,South,171,10.0,13.0,69,0.00,,,0.00,120,Wunderground v.1.15,2013-04-21 13:43:00,
2013-04-21 08:49:00,48.2,38.5,30.15,SE,134,10.0,14.0,69,0.00,,,0.00,116,Wunderground v.1.15,2013-04-21 13:49:00,
2013-04-21 08:55:00,48.5,38.8,30.15,SSE,161,9.0,10.0,69,0.00,,,0.00,121,Wunderground v.1.15,2013-04-21 13:55:00,
2013-04-21 09:01:00,48.6,38.9,30.15,SSE,163,9.0,10.0,69,0.00,,,0.00,128,Wunderground v.1.15,2013-04-21 14:01:00,
2013-04-21 09:06:00,48.9,38.8,30.14,SSE,151,9.0,13.0,68,0.00,,,0.00,116,Wunderground v.1.15,2013-04-21 14:06:00,
2013-04-21 09:11:00,49.2,39.5,30.14,SSE,161,9.0,9.0,69,0.00,,,0.00,139,Wunderground v.1.15,2013-04-21 14:11:00,
2013-04-21 09:16:00,49.4,39.3,30.14,SSE,165,9.0,10.0,68,0.00,,,0.00,149,Wunderground v.1.15,2013-04-21 14:16:00,
2013-04-21 09:22:00,49.7,39.6,30.14,South,171,9.0,9.0,68,0.00,,,0.00,165,Wunderground v.1.15,2013-04-21 14:22:00,
2013-04-21 09:27:00,50.0,39.8,30.14,SSE,165,9.0,16.0,68,0.00,,,0.00,176,Wunderground v.1.15,2013-04-21 14:27:00,
2013-04-21 09:32:00,50.2,40.0,30.14,SE,143,9.0,13.0,68,0.00,,,0.00,169,Wunderground v.1.15,2013-04-21 14:32:00,
2013-04-21 09:37:00,50.3,39.8,30.14,SE,140,10.0,13.0,67,0.00,,,0.00,183,Wunderground v.1.15,2013-04-21 14:37:00,
2013-04-21 09:43:00,50.8,40.2,30.14,South,171,10.0,10.0,67,0.00,,,0.00,244,Wunderground v.1.15,2013-04-21 14:43:00,
2013-04-21 09:48:00,51.2,40.6,30.14,SSE,165,9.0,11.0,67,0.00,,,0.00,269,Wunderground v.1.15,2013-04-21 14:48:00,
2013-04-21 09:53:00,51.5,40.5,30.14,South,169,10.0,15.0,66,0.00,,,0.00,267,Wunderground v.1.15,2013-04-21 14:53:00,
2013-04-21 09:58:00,51.7,40.7,30.13,SSE,147,11.0,15.0,66,0.00,,,0.00,294,Wunderground v.1.15,2013-04-21 14:58:00,
2013-04-21 10:03:00,52.1,41.1,30.13,SSE,159,9.0,11.0,66,0.00,,,0.00,318,Wunderground v.1.15,2013-04-21 15:03:00,
2013-04-21 10:09:00,52.7,41.3,30.13,SSE,163,9.0,13.0,65,0.00,,,0.00,360,Wunderground v.1.15,2013-04-21 15:09:00,
2013-04-21 10:15:00,53.7,42.2,30.13,South,170,10.0,15.0,65,0.00,,,0.00,519,Wunderground v.1.15,2013-04-21 15:15:00,
2013-04-21 10:21:00,54.6,41.8,30.13,SSE,167,12.0,14.0,62,0.00,,,0.00,394,Wunderground v.1.15,2013-04-21 15:21:00,
2013-04-21 10:27:00,54.8,42.4,30.12,SSE,152,14.0,17.0,63,0.00,,,0.00,394,Wunderground v.1.15,2013-04-21 15:27:00,
2013-04-21 10:32:00,55.7,42.5,30.12,SSE,167,14.0,20.0,61,0.00,,,0.00,439,Wunderground v.1.15,2013-04-21 15:32:00,
2013-04-21 10:37:00,56.6,43.3,30.12,South,174,14.0,20.0,61,0.00,,,0.00,865,Wunderground v.1.15,2013-04-21 15:37:00,
2013-04-21 10:42:00,57.8,44.4,30.12,South,174,12.0,21.0,61,0.00,,,0.00,1007,Wunderground v.1.15,2013-04-21 15:42:00,
2013-04-21 10:47:00,58.7,44.4,30.12,SSE,152,11.0,21.0,59,0.00,,,0.00,626,Wunderground v.1.15,2013-04-21 15:47:00,
2013-04-21 10:53:00,58.5,43.8,30.12,SSE,164,12.0,18.0,58,0.00,,,0.00,499,Wunderground v.1.15,2013-04-21 15:53:00,
2013-04-21 10:59:00,59.5,44.2,30.12,South,190,13.0,18.0,57,0.00,,,0.00,879,Wunderground v.1.15,2013-04-21 15:59:00,
2013-04-21 11:04:00,60.2,43.5,30.12,South,185,15.0,18.0,54,0.00,,,0.00,916,Wunderground v.1.15,2013-04-21 16:04:00,
2013-04-21 11:09:00,59.8,44.1,30.11,South,179,14.0,27.0,56,0.00,,,0.00,448,Wunderground v.1.15,2013-04-21 16:09:00,
2013-04-21 11:14:00,60.1,44.8,30.11,South,180,12.0,16.0,57,0.00,,,0.00,520,Wunderground v.1.15,2013-04-21 16:14:00,
2013-04-21 11:20:00,62.5,43.1,30.11,SSW,197,13.0,13.0,49,0.00,,,0.00,545,Wunderground v.1.15,2013-04-21 16:20:00,
2013-04-21 11:26:00,62.7,42.7,30.11,SSW,201,14.0,19.0,48,0.00,,,0.00,404,Wunderground v.1.15,2013-04-21 16:26:00,
2013-04-21 11:32:00,62.3,42.9,30.11,South,187,15.0,18.0,49,0.00,,,0.00,485,Wunderground v.1.15,2013-04-21 16:32:00,
2013-04-21 11:37:00,62.6,42.1,30.11,South,186,14.0,18.0,47,0.00,,,0.00,408,Wunderground v.1.15,2013-04-21 16:37:00,
2013-04-21 11:42:00,62.5,42.0,30.11,South,189,12.0,18.0,47,0.00,,,0.00,439,Wunderground v.1.15,2013-04-21 16:42:00,
2013-04-21 11:47:00,62.6,42.1,30.10,SSE,166,13.0,19.0,47,0.00,,,0.00,584,Wunderground v.1.15,2013-04-21 16:47:00,
2013-04-21 11:52:00,63.1,42.0,30.10,South,188,16.0,22.0,46,0.00,,,0.00,584,Wunderground v.1.15,2013-04-21 16:52:00,
2013-04-21 11:58:00,65.1,42.6,30.10,South,190,17.0,27.0,44,0.00,,,0.00,847,Wunderground v.1.15,2013-04-21 16:58:00,
2013-04-21 12:04:00,65.6,42.5,30.09,SSE,156,18.0,28.0,43,0.00,,,0.00,1136,Wunderground v.1.15,2013-04-21 17:04:00,
2013-04-21 12:09:00,65.2,42.7,30.09,South,182,18.0,28.0,44,0.00,,,0.00,1194,Wunderground v.1.15,2013-04-21 17:09:00,
2013-04-21 12:14:00,64.9,43.0,30.10,South,185,17.0,21.0,45,0.00,,,0.00,1194,Wunderground v.1.15,2013-04-21 17:14:00,
2013-04-21 12:19:00,65.2,41.5,30.09,SSW,200,17.0,21.0,42,0.00,,,0.00,366,Wunderground v.1.15,2013-04-21 17:19:00,
2013-04-21 12:25:00,64.3,40.1,30.09,SW,217,17.0,23.0,41,0.00,,,0.00,564,Wunderground v.1.15,2013-04-21 17:25:00,
2013-04-21 12:31:00,64.5,40.3,30.08,South,186,20.0,23.0,41,0.00,,,0.00,817,Wunderground v.1.15,2013-04-21 17:31:00,
2013-04-21 12:37:00,65.2,41.5,30.08,SW,226,18.0,23.0,42,0.00,,,0.00,599,Wunderground v.1.15,2013-04-21 17:37:00,
2013-04-21 12:42:00,65.4,40.4,30.08,SSW,205,16.0,25.0,40,0.00,,,0.00,997,Wunderground v.1.15,2013-04-21 17:42:00,
2013-04-21 12:47:00,66.1,41.1,30.07,South,185,17.0,26.0,40,0.00,,,0.00,1023,Wunderground v.1.15,2013-04-21 17:47:00,
2013-04-21 12:52:00,65.6,41.3,30.08,South,175,18.0,19.0,41,0.00,,,0.00,480,Wunderground v.1.15,2013-04-21 17:52:00,
2013-04-21 12:57:00,65.4,42.3,30.08,SW,231,16.0,23.0,43,0.00,,,0.00,494,Wunderground v.1.15,2013-04-21 17:57:00,
2013-04-21 13:03:00,65.3,41.0,30.07,South,189,15.0,23.0,41,0.00,,,0.00,487,Wunderground v.1.15,2013-04-21 18:03:00,
2013-04-21 13:08:00,65.8,42.1,30.07,SSW,195,16.0,23.0,42,0.00,,,0.00,640,Wunderground v.1.15,2013-04-21 18:08:00,
2013-04-21 13:13:00,66.7,42.2,30.06,SSW,209,15.0,17.0,41,0.00,,,0.00,789,Wunderground v.1.15,2013-04-21 18:13:00,
2013-04-21 13:18:00,66.1,43.5,30.06,SW,217,15.0,21.0,44,0.00,,,0.00,918,Wunderground v.1.15,2013-04-21 18:18:00,
2013-04-21 13:23:00,67.0,43.1,30.06,South,189,14.0,22.0,42,0.00,,,0.00,1009,Wunderground v.1.15,2013-04-21 18:23:00,
2013-04-21 13:29:00,66.5,41.4,30.06,SSW,192,16.0,31.0,40,0.00,,,0.00,969,Wunderground v.1.15,2013-04-21 18:29:00,
2013-04-21 13:35:00,66.8,41.7,30.05,South,184,17.0,21.0,40,0.00,,,0.00,930,Wunderground v.1.15,2013-04-21 18:35:00,
2013-04-21 13:41:00,67.0,41.2,30.05,SSW,207,17.0,19.0,39,0.00,,,0.00,803,Wunderground v.1.15,2013-04-21 18:41:00,
2013-04-21 13:47:00,66.8,41.7,30.05,SSW,206,18.0,21.0,40,0.00,,,0.00,751,Wunderground v.1.15,2013-04-21 18:47:00,
2013-04-21 13:52:00,67.1,42.0,30.05,SSW,204,17.0,21.0,40,0.00,,,0.00,775,Wunderground v.1.15,2013-04-21 18:52:00,
2013-04-21 13:57:00,66.6,42.2,30.05,SSW,211,16.0,26.0,41,0.00,,,0.00,410,Wunderground v.1.15,2013-04-21 18:57:00,
2013-04-21 14:02:00,66.5,42.1,30.05,South,185,15.0,18.0,41,0.00,,,0.00,555,Wunderground v.1.15,2013-04-21 19:02:00,
2013-04-21 14:08:00,65.8,42.1,30.05,South,170,16.0,24.0,42,0.00,,,0.00,547,Wunderground v.1.15,2013-04-21 19:08:00,
2013-04-21 14:14:00,65.9,42.8,30.05,South,190,17.0,20.0,43,0.00,,,0.00,455,Wunderground v.1.15,2013-04-21 19:14:00,
2013-04-21 14:20:00,65.8,43.3,30.05,SSW,196,15.0,15.0,44,0.00,,,0.00,461,Wunderground v.1.15,2013-04-21 19:20:00,
2013-04-21 14:26:00,66.0,42.9,30.04,SSW,203,15.0,22.0,43,0.00,,,0.00,480,Wunderground v.1.15,2013-04-21 19:26:00,
2013-04-21 14:32:00,66.2,43.6,30.05,SSW,200,15.0,15.0,44,0.00,,,0.00,519,Wunderground v.1.15,2013-04-21 19:32:00,
2013-04-21 14:37:00,66.2,43.6,30.04,South,184,13.0,18.0,44,0.00,,,0.00,322,Wunderground v.1.15,2013-04-21 19:37:00,
2013-04-21 14:42:00,65.9,43.4,30.04,SSW,192,13.0,21.0,44,0.00,,,0.00,332,Wunderground v.1.15,2013-04-21 19:42:00,
2013-04-21 14:47:00,65.7,43.8,30.04,SSE,167,14.0,21.0,45,0.00,,,0.00,304,Wunderground v.1.15,2013-04-21 19:47:00,
2013-04-21 14:53:00,65.6,43.7,30.04,SSW,209,14.0,17.0,45,0.00,,,0.00,322,Wunderground v.1.15,2013-04-21 19:53:00,
2013-04-21 14:59:00,65.8,43.9,30.03,South,185,14.0,17.0,45,0.00,,,0.00,355,Wunderground v.1.15,2013-04-21 19:59:00,
2013-04-21 15:05:00,66.3,43.7,30.03,SSW,204,15.0,15.0,44,0.00,,,0.00,487,Wunderground v.1.15,2013-04-21 20:05:00,
2013-04-21 15:10:00,66.5,43.3,30.03,South,184,14.0,14.0,43,0.00,,,0.00,297,Wunderground v.1.15,2013-04-21 20:10:00,
2013-04-21 15:15:00,66.1,43.5,30.02,SSW,198,13.0,15.0,44,0.00,,,0.00,299,Wunderground v.1.15,2013-04-21 20:15:00,
2013-04-21 15:21:00,66.0,43.5,30.03,SSW,213,14.0,15.0,44,0.00,,,0.00,148,Wunderground v.1.15,2013-04-21 20:21:00,
2013-04-21 15:26:00,65.3,42.2,30.03,SSE,161,15.0,17.0,43,0.00,,,0.00,179,Wunderground v.1.15,2013-04-21 20:26:00,
2013-04-21 15:31:00,65.0,41.9,30.02,SSW,194,14.0,14.0,43,0.00,,,0.00,123,Wunderground v.1.15,2013-04-21 20:31:00,
2013-04-21 15:36:00,65.2,42.1,30.02,South,182,12.0,14.0,43,0.00,,,0.00,142,Wunderground v.1.15,2013-04-21 20:36:00,
2013-04-21 15:41:00,65.4,41.1,30.02,SSW,199,12.0,13.0,41,0.00,,,0.00,114,Wunderground v.1.15,2013-04-21 20:41:00,
2013-04-21 15:46:00,65.4,41.1,30.02,SSW,193,12.0,20.0,41,0.00,,,0.00,151,Wunderground v.1.15,2013-04-21 20:46:00,
2013-04-21 15:51:00,65.5,41.2,30.02,SSW,206,13.0,13.0,41,0.00,,,0.00,202,Wunderground v.1.15,2013-04-21 20:51:00,
2013-04-21 15:56:00,65.7,42.0,30.02,WSW,240,13.0,16.0,42,0.00,,,0.00,186,Wunderground v.1.15,2013-04-21 20:56:00,
2013-04-21 16:01:00,65.8,42.1,30.02,SSW,195,11.0,17.0,42,0.00,,,0.00,246,Wunderground v.1.15,2013-04-21 21:01:00,
2013-04-21 16:07:00,65.8,42.1,30.02,SSW,205,11.0,18.0,42,0.00,,,0.00,176,Wunderground v.1.15,2013-04-21 21:07:00,
2013-04-21 16:12:00,65.9,42.1,30.01,SW,218,12.0,13.0,42,0.00,,,0.00,239,Wunderground v.1.15,2013-04-21 21:12:00,
2013-04-21 16:17:00,66.1,41.7,30.01,SSW,202,12.0,20.0,41,0.00,,,0.00,318,Wunderground v.1.15,2013-04-21 21:17:00,
2013-04-21 16:22:00,66.5,43.3,30.01,SSW,196,11.0,12.0,43,0.00,,,0.00,360,Wunderground v.1.15,2013-04-21 21:22:00,
2013-04-21 16:28:00,67.0,42.5,30.01,SW,220,10.0,15.0,41,0.00,,,0.00,332,Wunderground v.1.15,2013-04-21 21:28:00,
2013-04-21 16:34:00,66.8,43.0,30.01,SSW,194,12.0,17.0,42,0.00,,,0.00,279,Wunderground v.1.15,2013-04-21 21:34:00,
2013-04-21 16:40:00,66.7,41.6,30.01,South,173,12.0,19.0,40,0.00,,,0.00,323,Wunderground v.1.15,2013-04-21 21:40:00,
2013-04-21 16:45:00,66.7,41.6,30.01,South,182,13.0,19.0,40,0.00,,,0.00,278,Wunderground v.1.15,2013-04-21 21:45:00,
2013-04-21 16:50:00,66.6,41.5,30.01,SW,215,14.0,14.0,40,0.00,,,0.00,193,Wunderground v.1.15,2013-04-21 21:50:00,
2013-04-21 16:55:00,66.5,41.4,30.01,SSW,208,16.0,23.0,40,0.00,,,0.00,171,Wunderground v.1.15,2013-04-21 21:55:00,
2013-04-21 17:00:00,66.3,41.2,30.01,South,184,14.0,14.0,40,0.00,,,0.00,130,Wunderground v.1.15,2013-04-21 22:00:00,
2013-04-21 17:05:00,66.3,41.9,30.01,SSW,207,13.0,17.0,41,0.00,,,0.00,192,Wunderground v.1.15,2013-04-21 22:05:00,
2013-04-21 17:11:00,66.5,41.4,30.00,SSW,202,13.0,13.0,40,0.00,,,0.00,185,Wunderground v.1.15,2013-04-21 22:11:00,
2013-04-21 17:17:00,66.5,41.4,30.01,SE,139,13.0,22.0,40,0.00,,,0.00,151,Wunderground v.1.15,2013-04-21 22:17:00,
2013-04-21 17:22:00,66.4,42.6,30.01,South,189,13.0,14.0,42,0.00,,,0.00,86,Wunderground v.1.15,2013-04-21 22:22:00,
2013-04-21 17:27:00,66.2,41.8,30.01,South,190,11.0,16.0,41,0.00,,,0.00,60,Wunderground v.1.15,2013-04-21 22:27:00,
2013-04-21 17:32:00,65.9,42.1,30.01,SSW,204,11.0,12.0,42,0.00,,,0.00,83,Wunderground v.1.15,2013-04-21 22:32:00,
2013-04-21 17:37:00,65.9,42.1,30.01,SW,215,12.0,17.0,42,0.00,,,0.00,107,Wunderground v.1.15,2013-04-21 22:37:00,
2013-04-21 17:43:00,65.9,43.4,30.00,South,185,10.0,11.0,44,0.00,,,0.00,123,Wunderground v.1.15,2013-04-21 22:43:00,
2013-04-21 17:49:00,66.0,42.2,30.00,South,190,10.0,15.0,42,0.00,,,0.00,42,Wunderground v.1.15,2013-04-21 22:49:00,
2013-04-21 17:54:00,65.9,42.8,30.00,SSW,197,10.0,14.0,43,0.00,,,0.00,32,Wunderground v.1.15,2013-04-21 22:54:00,
2013-04-21 17:59:00,65.7,42.6,30.00,South,170,10.0,14.0,43,0.00,,,0.00,35,Wunderground v.1.15,2013-04-21 22:59:00,
2013-04-21 18:05:00,65.6,42.5,30.00,South,175,11.0,12.0,43,0.00,,,0.00,35,Wunderground v.1.15,2013-04-21 23:05:00,
2013-04-21 18:11:00,65.4,42.9,30.00,South,172,10.0,11.0,44,0.00,,,0.00,14,Wunderground v.1.15,2013-04-21 23:11:00,
2013-04-21 18:17:00,65.4,42.9,30.00,SSE,165,10.0,15.0,44,0.00,,,0.00,9,Wunderground v.1.15,2013-04-21 23:17:00,
2013-04-21 18:23:00,65.3,43.4,30.00,South,172,10.0,14.0,45,0.00,,,0.00,16,Wunderground v.1.15,2013-04-21 23:23:00,
2013-04-21 18:29:00,65.0,44.3,30.00,South,172,10.0,14.0,47,0.00,,,0.00,21,Wunderground v.1.15,2013-04-21 23:29:00,
2013-04-21 18:35:00,64.8,43.5,29.99,SSE,151,11.0,20.0,46,0.00,,,0.00,28,Wunderground v.1.15,2013-04-21 23:35:00,
2013-04-21 18:41:00,64.9,43.6,29.99,South,186,12.0,14.0,46,0.00,,,0.00,28,Wunderground v.1.15,2013-04-21 23:41:00,
2013-04-21 18:47:00,64.9,43.6,29.99,South,173,11.0,14.0,46,0.00,,,0.00,51,Wunderground v.1.15,2013-04-21 23:47:00,
2013-04-21 18:52:00,64.9,44.2,29.99,SSE,164,9.0,13.0,47,0.00,,,0.00,53,Wunderground v.1.15,2013-04-21 23:52:00,
2013-04-21 18:57:00,64.8,44.6,29.99,SSW,201,9.0,13.0,48,0.00,,,0.00,18,Wunderground v.1.15,2013-04-21 23:57:00,
2013-04-21 19:02:00,64.7,44.5,29.99,SSE,163,8.0,11.0,48,0.00,,,0.00,9,Wunderground v.1.15,2013-04-22 00:02:00,
2013-04-21 19:07:00,64.5,45.4,30.00,SSE,159,9.0,13.0,50,0.00,,,0.00,5,Wunderground v.1.15,2013-04-22 00:07:00,
2013-04-21 19:12:00,64.2,45.2,30.00,South,170,10.0,10.0,50,0.00,,,0.00,5,Wunderground v.1.15,2013-04-22 00:12:00,
2013-04-21 19:18:00,64.1,45.1,29.99,South,180,9.0,11.0,50,0.00,,,0.00,5,Wunderground v.1.15,2013-04-22 00:18:00,
2013-04-21 19:23:00,63.9,45.4,29.99,SSW,209,6.0,8.0,51,0.00,,,0.00,5,Wunderground v.1.15,2013-04-22 00:23:00,
2013-04-21 19:29:00,63.3,45.4,30.00,SSW,212,5.0,16.0,52,0.00,,,0.00,7,Wunderground v.1.15,2013-04-22 00:29:00,
2013-04-21 19:35:00,63.3,45.4,30.00,South,180,8.0,10.0,52,0.00,,,0.00,7,Wunderground v.1.15,2013-04-22 00:35:00,
2013-04-21 19:40:00,63.1,45.2,29.99,South,184,8.0,9.0,52,0.00,,,0.00,5,Wunderground v.1.15,2013-04-22 00:40:00,
2013-04-21 19:46:00,62.9,45.5,29.99,SSW,196,9.0,11.0,53,0.00,,,0.00,0,Wunderground v.1.15,2013-04-22 00:46:00,
2013-04-21 19:52:00,62.7,45.8,29.99,South,175,10.0,10.0,54,0.00,,,0.00,0,Wunderground v.1.15,2013-04-22 00:52:00,
2013-04-21 19:58:00,62.4,46.0,30.01,SSW,210,7.0,11.0,55,0.00,,,0.00,0,Wunderground v.1.15,2013-04-22 00:58:00,
2013-04-21 20:04:00,61.7,47.2,30.03,NNW,333,7.0,20.0,59,0.00,,,0.00,0,Wunderground v.1.15,2013-04-22 01:04:00,
2013-04-21 20:09:00,60.0,47.8,30.03,North,355,10.0,20.0,64,0.00,,,0.00,0,Wunderground v.1.15,2013-04-22 01:09:00,
2013-04-21 20:14:00,58.6,48.8,30.04,NNW,338,11.0,12.0,70,0.00,,,0.00,0,Wunderground v.1.15,2013-04-22 01:14:00,
2013-04-21 20:19:00,57.6,49.0,30.04,NNW,329,10.0,16.0,73,0.00,,,0.00,0,Wunderground v.1.15,2013-04-22 01:19:00,
2013-04-21 20:24:00,56.8,49.7,30.04,NNW,348,12.0,15.0,77,0.24,,,0.02,0,Wunderground v.1.15,2013-04-22 01:24:00,
2013-04-21 20:29:00,56.2,50.1,30.05,NNW,346,10.0,15.0,80,0.08,,,0.02,0,Wunderground v.1.15,2013-04-22 01:29:00,
2013-04-21 20:34:00,56.0,50.3,30.06,NW,326,8.0,17.0,81,0.05,,,0.03,0,Wunderground v.1.15,2013-04-22 01:34:00,
2013-04-21 20:40:00,55.2,50.4,30.05,NNW,334,14.0,15.0,84,0.21,,,0.06,0,Wunderground v.1.15,2013-04-22 01:40:00,
2013-04-21 20:45:00,54.5,50.7,30.06,WNW,290,16.0,16.0,87,0.20,,,0.08,0,Wunderground v.1.15,2013-04-22 01:45:00,
2013-04-21 20:51:00,54.0,50.8,30.07,NW,311,16.0,17.0,89,0.72,,,0.17,0,Wunderground v.1.15,2013-04-22 01:51:00,
2013-04-21 20:56:00,53.7,50.8,30.08,NW,305,14.0,17.0,90,0.20,,,0.18,0,Wunderground v.1.15,2013-04-22 01:56:00,
2013-04-21 21:02:00,53.4,50.8,30.08,WNW,303,8.0,11.0,91,0.07,,,0.18,0,Wunderground v.1.15,2013-04-22 02:02:00,
2013-04-21 21:07:00,53.2,50.6,30.07,WNW,303,4.0,11.0,91,0.06,,,0.19,0,Wunderground v.1.15,2013-04-22 02:07:00,
2013-04-21 21:12:00,53.1,50.8,30.08,WNW,303,2.0,2.0,92,0.06,,,0.19,0,Wunderground v.1.15,2013-04-22 02:12:00,
2013-04-21 21:17:00,53.1,50.8,30.08,WNW,303,1.0,2.0,92,0.18,,,0.21,0,Wunderground v.1.15,2013-04-22 02:17:00,
2013-04-21 21:23:00,53.0,51.0,30.08,WNW,303,0.0,0.0,93,0.12,,,0.22,0,Wunderground v.1.15,2013-04-22 02:23:00,
2013-04-21 21:30:00,52.9,50.9,30.08,WNW,303,0.0,0.0,93,0.50,,,0.26,0,Wunderground v.1.15,2013-04-22 02:30:00,
2013-04-21 21:35:00,52.8,51.1,30.08,West,259,1.0,5.0,94,0.22,,,0.29,0,Wunderground v.1.15,2013-04-22 02:35:00,
2013-04-21 21:40:00,52.7,51.0,30.08,SSE,165,4.0,5.0,94,0.22,,,0.31,0,Wunderground v.1.15,2013-04-22 02:40:00,
2013-04-21 21:45:00,52.6,50.9,30.08,SSE,161,5.0,7.0,94,0.16,,,0.32,0,Wunderground v.1.15,2013-04-22 02:45:00,
2013-04-21 21:51:00,52.7,51.0,30.08,SSE,161,5.0,5.0,94,0.11,,,0.33,0,Wunderground v.1.15,2013-04-22 02:51:00,
2013-04-21 21:56:00,52.7,51.0,30.08,SE,142,5.0,8.0,94,0.06,,,0.33,0,Wunderground v.1.15,2013-04-22 02:56:00,
2013-04-21 22:01:00,52.7,50.7,30.08,SE,138,6.0,9.0,93,0.04,,,0.33,0,Wunderground v.1.15,2013-04-22 03:01:00,
2013-04-21 22:06:00,52.7,51.0,30.08,SSE,157,7.0,9.0,94,0.00,,,0.33,0,Wunderground v.1.15,2013-04-22 03:06:00,
2013-04-21 22:11:00,52.6,50.9,30.09,SE,138,7.0,8.0,94,0.00,,,0.33,0,Wunderground v.1.15,2013-04-22 03:11:00,
2013-04-21 22:17:00,52.6,50.9,30.09,SE,142,6.0,8.0,94,0.00,,,0.33,0,Wunderground v.1.15,2013-04-22 03:17:00,
2013-04-21 22:22:00,52.4,50.7,30.10,SE,142,4.0,8.0,94,0.00,,,0.33,0,Wunderground v.1.15,2013-04-22 03:22:00,
2013-04-21 22:27:00,52.3,50.6,30.09,SE,144,4.0,8.0,94,0.00,,,0.33,0,Wunderground v.1.15,2013-04-22 03:27:00,
2013-04-21 22:32:00,52.1,50.7,30.10,South,169,5.0,7.0,95,0.00,,,0.33,0,Wunderground v.1.15,2013-04-22 03:32:00,
2013-04-21 22:37:00,52.1,50.7,30.10,SSE,167,6.0,7.0,95,0.00,,,0.33,0,Wunderground v.1.15,2013-04-22 03:37:00,
2013-04-21 22:43:00,51.9,50.5,30.10,South,169,6.0,6.0,95,0.00,,,0.33,0,Wunderground v.1.15,2013-04-22 03:43:00,
2013-04-21 22:48:00,51.9,50.5,30.10,South,169,6.0,9.0,95,0.00,,,0.33,0,Wunderground v.1.15,2013-04-22 03:48:00,
2013-04-21 22:53:00,51.8,50.4,30.10,South,169,5.0,6.0,95,0.00,,,0.33,0,Wunderground v.1.15,2013-04-22 03:53:00,
2013-04-21 22:58:00,51.7,50.3,30.10,South,169,5.0,6.0,95,0.00,,,0.33,0,Wunderground v.1.15,2013-04-22 03:58:00,
2013-04-21 23:01:00,51.7,50.3,30.10,South,169,5.0,7.0,95,0.00,,,0.33,0,Wunderground v.1.15,2013-04-22 04:01:00,
2013-04-21 23:02:00,51.7,50.3,30.10,South,169,5.0,7.0,95,0.00,,,0.33,0,Wunderground v.1.15,2013-04-22 04:02:00,
2013-04-21 23:03:00,51.7,50.3,30.10,South,169,5.0,7.0,95,0.00,,,0.33,0,Wunderground v.1.15,2013-04-22 04:03:00,
2013-04-21 23:09:00,51.6,50.2,30.10,South,169,4.0,7.0,95,0.00,,,0.33,0,Wunderground v.1.15,2013-04-22 04:09:00,
2013-04-21 23:10:00,51.6,50.2,30.10,South,169,4.0,4.0,95,0.00,,,0.33,0,Wunderground v.1.15,2013-04-22 04:10:00,
2013-04-21 23:16:00,51.5,49.8,30.10,South,169,2.0,4.0,94,0.00,,,0.33,0,Wunderground v.1.15,2013-04-22 04:16:00,
2013-04-21 23:22:00,51.4,49.7,30.10,South,169,2.0,5.0,94,0.00,,,0.33,0,Wunderground v.1.15,2013-04-22 04:22:00,
2013-04-21 23:27:00,51.3,49.6,30.10,South,169,3.0,5.0,94,0.00,,,0.33,0,Wunderground v.1.15,2013-04-22 04:27:00,
2013-04-21 23:32:00,51.1,49.4,30.10,South,169,2.0,3.0,94,0.00,,,0.33,0,Wunderground v.1.15,2013-04-22 04:32:00,
2013-04-21 23:37:00,50.9,49.2,30.10,South,169,1.0,3.0,94,0.00,,,0.33,0,Wunderground v.1.15,2013-04-22 04:37:00,
2013-04-21 23:43:00,50.5,48.8,30.10,South,169,0.0,2.0,94,0.00,,,0.33,0,Wunderground v.1.15,2013-04-22 04:43:00,
2013-04-21 23:49:00,50.3,48.6,30.10,South,169,1.0,2.0,94,0.00,,,0.33,0,Wunderground v.1.15,2013-04-22 04:49:00,
2013-04-21 23:55:00,50.1,48.7,30.10,South,169,0.0,1.0,95,0.00,,,0.33,0,Wunderground v.1.15,2013-04-22 04:55:00,